User: anonymous   Login
Location: Goheenville
(40.9070°N, 79.3720°W)
Time: 21:03:33
(UTC-04:00)
Language:

Cosmos 1727 Rocket - Orbit

View from above orbital plane
View from above orbital plane
View from above satellite
View from above satellite

Ground track
Ground track

The orbit data is extracted from the following two-line orbital elements,

1 16511U 86008B   16205.32089101  .00000067  00000-0  52991-4 0  9997
2 16511  82.9455 103.8179 0025348 119.5245  19.7164 13.75805647531055
Epoch (UTC): 23 July 2016 07:42:04
Eccentricity: 0.0025348
inclination: 82.9455°
perigee height: 960 km
apogee height: 997 km
right ascension of ascending node: 103.8179°
argument of perigee: 119.5245°
revolutions per day: 13.75805647
mean anomaly at epoch: 19.7164°
orbit number at epoch: 53105

The dashed part of the orbit path shows where the satellite is in the earth's shadow,  

DLR